Location: ????????
(55.6347°N, 38.7150°E)
Time: 12:41:40
(UTC+00:00)

Daily predictions for brighter satellites

Satellite Brightness Start Highest point End
(mag) Time Altitude Azimuth Time Altitude Azimuth Time Altitude Azimuth
Cosmos 2263 4.4 13:26:48 10° SSW 13:32:29 63° ESE 13:38:13 10° NE
Cosmos 968 Rocket 3.6 13:27:27 10° SSW 13:32:41 87° ESE 13:37:59 10° NNE
ACS3 Solar Sail 4.2 13:29:47 10° WSW 13:33:06 15° W 13:36:30 10° NW
Cosmos 1626 Rocket 4.3 13:33:02 10° N 13:36:53 29° ENE 13:40:42 10° SE
Cosmos 2297 3.8 13:31:25 10° SSW 13:37:05 80° ESE 13:42:46 10° NE
Cosmos 1400 Rocket 3.3 13:35:03 10° SSW 13:38:40 56° WNW 13:42:19 10° N
USA 290 3.6 13:36:30 10° N 13:39:00 20° NE 13:41:30 10° E
Cosmos 1892 Rocket 3.6 13:35:17 10° N 13:39:46 75° ENE 13:44:13 10° SSE
Cosmos 1464 Rocket 4.0 13:34:01 10° S 13:40:11 82° E 13:46:21 10° NNE
SMAP 3.7 13:36:13 10° SE 13:40:25 35° ENE 13:44:39 10° N
Thor Agena Rocket 3.8 13:36:21 10° SE 13:41:19 47° ENE 13:46:16 10° N
Cosmos 2297 Rocket 2.5 13:38:26 10° NNW 13:43:54 45° NE 13:49:20 10° ESE
Landsat 7 4.5 13:42:33 10° ESE 13:46:39 32° ENE 13:50:45 10° N
Cosmos 2151 4.1 13:44:02 10° NNE 13:47:14 21° ENE 13:50:26 10° ESE
Cosmos 1741 Rocket 4.1 13:43:44 10° SSW 13:49:02 87° ESE 13:54:25 10° NNE
Aureole 3 Rocket 4.3 13:45:39 10° SSW 13:50:02 55° WNW 13:56:14 10° N
Cosmos 1092 Rocket 4.0 13:44:54 10° N 13:51:06 74° ENE 13:57:14 10° SSE
CZ-2D R/B 4.0 13:49:31 10° ESE 13:51:57 21° ENE 13:54:23 10° NNE
BlueWalker 3 3.0 13:51:08 10° W 13:54:35 42° SSW 13:58:02 10° SE
Meteor 2-1 Rocket 4.3 13:50:40 10° S 13:56:35 81° ESE 14:02:27 10° NNE
Cosmos 2219 4.4 13:52:08 10° NNW 13:56:38 23° NNE 14:01:09 10° ENE
Cosmos 1743 3.4 13:56:00 10° NNE 13:58:40 23° ENE 14:01:19 10° ESE
Lacrosse 4 Rocket 1.8 13:55:45 10° SSW 13:59:37 44° ESE 14:03:13 11° NE
ATLAS CENTAUR R/B 0.7 13:57:12 10° NW 14:00:31 64° NE 14:03:42 10° ESE
CZ-4C R/B 2.8 13:55:47 10° NW 14:01:58 66° NNE 14:09:55 10° ESE
Cosmos 1484 Rocket 2.5 14:00:17 10° SSE 14:03:48 87° ENE 14:07:20 10° NNW
Iridium 45 4.1 14:02:36 10° S 14:05:45 74° E 14:08:58 10° N
Cosmos 724 4.3 14:01:03 10° NW 14:07:11 69° NE 14:13:08 10° ESE
JB-3 4.1 14:04:01 10° NNE 14:07:44 82° E 14:11:24 10° SSW
Cosmos 2034 Rocket 4.1 14:01:36 10° S 14:07:56 87° E 14:14:22 10° NNE
Meteor 1-28 Rocket 3.4 14:06:20 10° NNE 14:09:31 38° E 14:12:40 10° S
NOSS 3-3 (A) 4.5 14:05:11 10° NW 14:12:08 85° NE 14:20:34 10° SE
Iridium 51 3.9 14:09:37 10° SSE 14:12:37 46° E 14:15:44 10° NNE
Cosmos 1602 Rocket 4.1 14:10:39 10° N 14:14:46 36° ENE 14:18:50 10° SE
Cosmos 1570 Rocket 4.0 14:09:33 10° NNW 14:14:57 87° ENE 14:20:17 10° SSE
MOS 1 Rocket 3.9 14:10:28 10° SE 14:15:01 40° ENE 14:19:50 10° N
Cosmos 1867 3.7 14:09:50 10° NW 14:15:14 56° NNE 14:20:36 10° ESE
IGS 5A 3.3 14:12:48 10° SSE 14:16:47 90° NNW 14:20:47 10° NNW
Cosmos 1455 Rocket 3.0 14:13:06 10° S 14:17:26 90° WSW 14:21:50 10° NNE
Lacrosse 5 rocket 2.0 14:15:17 10° SSW 14:18:45 36° SE 14:21:16 16° E
Cosmos 1844 Rocket 4.2 14:14:51 10° NNW 14:18:45 19° NNE 14:21:38 13° NE
Cosmos 2084 3.6 14:15:10 10° SW 14:19:18 59° SE 14:22:25 16° ENE
CENTAUR R/B 2.7 14:14:31 10° SSW 14:20:16 67° SE 14:26:39 14° NE
IRS-P3 4.3 14:15:44 10° SE 14:20:48 47° ENE 14:25:53 10° N
Cosmos 2084 Rocket 3.4 14:17:03 10° NW 14:21:15 63° NNE 14:25:26 10° ESE
SAR-Lupe-4 3.7 14:18:20 10° SE 14:21:47 48° ENE 14:25:14 10° N
Cosmos 1900 4.5 14:17:29 10° NW 14:22:31 56° NE 14:27:26 10° ESE
Cosmos 2266 Rocket 4.2 14:19:26 10° N 14:25:27 48° ENE 14:31:20 10° SE
Cosmos 2263 Rocket 2.9 14:20:37 10° NNW 14:25:42 33° NE 14:30:18 12° E
Cosmos 292 Rocket 3.8 14:21:44 10° SSW 14:26:33 82° WNW 14:31:22 10° NNE
Cosmos 1315 Rocket 2.6 14:23:05 10° S 14:26:54 73° E 14:30:45 10° NNE
Resurs 01 Rocket 3.4 14:28:00 14° NE 14:28:00 14° NE 14:29:29 10° NNE
SL-16 R/B 2.5 14:20:58 10° NNE 14:27:15 77° ESE 14:33:28 10° SSW
Cosmos 1607 3.9 14:22:09 10° NW 14:28:24 84° NE 14:34:41 10° SE
SAR-Lupe-1 4.2 14:25:27 10° SE 14:28:56 51° ENE 14:32:29 10° N
SJ 16-02 3.6 14:26:11 10° W 14:28:58 17° NW 14:31:46 10° N
NOSS 7 (H) 4.2 14:26:17 10° NW 14:29:11 48° NNE 14:31:04 19° E
CZ-2D R/B 4.3 14:25:48 10° ESE 14:29:23 28° ENE 14:32:57 10° N
ERS-1 4.5 14:24:45 10° SE 14:29:41 59° ENE 14:34:35 10° N
YAOGAN 1 3.5 14:29:19 10° ESE 14:32:52 26° ENE 14:36:25 10° N
Intercosmos 24 3.8 14:29:07 10° NNW 14:33:35 88° W 14:37:11 10° S
Cosmos 2227 Rocket 2.4 14:29:22 10° NNW 14:34:52 48° NE 14:40:20 10° ESE
Cosmos 1782 2.9 14:32:06 10° SSE 14:35:29 40° E 14:37:56 17° NNE
USA 215 3.3 14:29:44 14° E 14:35:36 80° N 14:42:10 10° W
CORIOLIS 4.2 14:32:16 10° SSE 14:37:37 84° WSW 14:43:00 10° NNW
Cosmos 405 Rocket 2.8 14:37:33 10° NNW 14:40:49 62° WSW 14:44:01 10° S
USA 281 4.4 14:38:01 17° ENE 14:40:53 23° NNE 14:45:47 10° NNW
Cosmos 1356 Rocket 3.3 14:37:03 10° SSW 14:41:07 86° WNW 14:45:14 10° NNE
Cosmos 773 Rocket 4.1 14:36:06 10° NNW 14:41:19 82° WSW 14:46:34 10° SSE
Cosmos 2369 Rocket 3.0 14:37:05 10° WSW 14:42:31 46° NW 14:47:43 11° NNE
Cosmos 1733 1.7 14:43:12 10° NNW 14:45:05 66° W 14:46:59 10° S
SJ-12 3.6 14:43:17 10° SSE 14:47:04 80° ENE 14:50:52 10° NNW
Cosmos 2208 Rocket 4.2 14:43:34 10° NNW 14:48:44 73° WSW 14:53:53 10° SSE
SJ-6F 4.3 14:45:03 10° SSE 14:48:59 64° ENE 14:52:58 10° N
Cosmos 1825 Rocket 3.9 14:45:03 10° N 14:49:12 40° ENE 14:53:17 10° SE
ARIANE 5 R/B 2.5 14:44:38 10° SSE 14:49:43 87° WSW 14:54:53 10° NNW
Cosmos 1933 4.4 14:47:14 10° SE 14:49:46 23° ESE 14:49:46 23° ESE
Cosmos 1758 Rocket 3.6 14:46:05 10° NNW 14:50:27 78° W 14:54:44 10° S
Cosmos 2278 Rocket 4.0 14:46:56 10° WNW 14:51:00 20° NNW 14:54:37 11° NNE
Cosmos 1943 Rocket 4.0 14:47:29 10° WNW 14:51:19 19° NNW 14:54:44 11° NNE
GEOS 3 Rocket 3.7 14:48:18 20° NE 14:52:02 69° SE 14:57:24 10° SW
SPOT 1/Viking Rocket 3.6 14:47:18 10° SE 14:52:22 54° ENE 14:57:27 10° N
Cosmos 2228 3.1 14:48:17 10° SSW 14:52:32 77° WNW 14:56:49 10° N
IRAS Rocket 4.5 14:47:31 10° SE 14:52:40 43° ENE 14:57:51 10° N
Cosmos 2098 Rocket 3.0 14:53:08 10° S 14:57:07 63° E 15:01:52 10° NNE
Cosmos 1697 Rocket 3.8 14:53:38 10° SSE 14:57:56 23° ESE 14:58:26 23° E
Meteor 1-20 Rocket 4.0 14:53:26 10° NNW 14:58:57 79° ENE 15:04:24 10° SSE
BREEZE-M DEB (TANK) 3.7 14:57:12 10° WSW 15:00:04 40° S 15:05:50 14° ESE
AQUARIUS 4.2 15:02:28 10° SSE 15:06:54 80° WSW 15:11:21 10° NNW
NOSS 2-2 (C) 2.4 15:06:50 10° SW 15:09:55 74° SE 15:10:15 64° E
USA 290 3.1 15:10:25 10° NW 15:13:36 51° WSW 15:16:46 10° S
NOSS 3-2 (C) 3.9 15:09:19 10° S 15:13:55 33° ESE 15:15:10 30° E
NOSS 3-2 (A) 3.2 15:10:12 10° SW 15:15:20 66° SE 15:18:17 31° ENE
Cosmos 1655 Rocket 4.0 15:09:42 10° N 15:15:54 59° ENE 15:22:03 10° SSE
SMAP 4.3 15:13:17 10° S 15:17:43 43° W 15:22:11 10° NNW
Cosmos 2082 4.2 15:14:02 10° NNW 15:19:24 40° NE 15:20:46 35° ENE
Cosmos 1241 Rocket 4.5 15:13:34 10° SSW 15:19:51 66° SE 15:22:58 31° NE
Cosmos 1538 Rocket 4.1 15:17:43 10° NNW 15:22:52 52° NE 15:25:01 32° ESE
CZ-2D R/B 4.3 15:20:47 10° SSW 15:23:43 36° W 15:26:41 10° NNW
Cosmos 2151 3.5 15:20:20 10° NNW 15:24:25 59° W 15:28:30 10° S
Cosmos 1606 Rocket 3.6 15:23:01 10° S 15:27:18 53° E 15:27:44 50° ENE
Cosmos 2297 Rocket 3.1 15:22:35 10° NW 15:28:03 50° WSW 15:33:29 10° S
UNK 4.2 15:23:59 11° N 15:28:24 61° WNW 15:32:55 10° SSW
Meteor 1-25 Rocket 4.3 15:22:54 10° NNW 15:28:47 83° WSW 15:34:34 10° S
BREEZE-M DEB (TANK) 4.4 15:25:56 10° WSW 15:29:15 45° S 15:33:46 23° ESE
Cosmos 1076 Rocket 3.4 15:26:01 10° N 15:30:17 61° ENE 15:32:39 25° SSE
Okean 1-7 Rocket 3.8 15:26:50 10° NNW 15:31:15 71° W 15:35:36 10° S
Cosmos 1743 4.1 15:29:21 10° NNW 15:32:18 32° W 15:35:14 10° SSW
Cosmos 1656 3.6 15:28:39 10° SSW 15:34:18 86° ESE 15:37:03 32° NE
Resurs 1-3 3.4 15:30:11 10° SSE 15:34:28 78° ENE 15:38:48 10° NNW
ATLAS CENTAUR R/B 3.5 15:32:36 10° WNW 15:35:01 19° WSW 15:37:24 10° S
Cosmos 1544 Rocket 4.3 15:32:01 10° SSW 15:36:19 52° WNW 15:40:20 12° N
Cosmos 1503 Rocket 4.0 15:31:34 10° S 15:36:43 60° ESE 15:37:55 47° ENE
Meteor 2-10 4.1 15:31:59 10° N 15:37:10 56° ENE 15:39:46 29° SE
Lacrosse 4 Rocket 2.4 15:33:45 10° WSW 15:37:33 37° NW 15:38:43 30° N
OceanSat 1 rocket 4.4 15:34:18 10° SSE 15:39:02 74° ENE 15:43:46 10° NNW
Cosmos 2219 3.2 15:36:18 10° NNW 15:41:59 58° NE 15:43:14 47° E
Cosmos 1461 4.2 15:39:16 10° S 15:41:17 25° SSE 15:41:17 25° SSE
SJ-7 4.1 15:42:23 52° S 15:43:14 85° WSW 15:47:01 10° NNW
Cosmos 1354 Rocket 4.1 15:38:29 10° S 15:43:33 51° ESE 15:43:36 51° ESE
Meteor 1-5 Rocket 4.0 15:38:40 10° NNW 15:44:01 90° ENE 15:49:26 10° SSE
SKYMED 2 3.4 15:45:54 72° E 15:46:04 73° ESE 15:50:24 10° S
Spot 4 Rocket 4.1 15:41:54 10° SSE 15:47:01 79° WSW 15:52:11 10° NNW
CZ-4C R/B 3.5 15:43:54 10° NW 15:50:27 56° SW 15:58:37 10° SSE
COSMO-SKYMED 1 4.0 15:52:52 24° S 15:52:52 24° S 15:54:38 10° S
SL-19 R/B 4.2 15:47:43 10° SSE 15:53:05 81° WSW 15:58:48 10° NNW
Cosmos 1726 Rocket 3.7 15:49:23 10° S 15:53:24 61° SSE 15:53:24 61° SSE
PSLV R/B 3.5 15:52:38 30° S 15:54:32 75° WSW 15:58:36 10° NNW
Lacrosse 5 rocket 1.6 15:51:50 10° WSW 15:54:52 56° W 15:54:52 56° W
Cosmos 44 Rocket 4.2 15:52:02 10° NW 15:56:25 37° NNE 15:56:25 37° NNE
Cosmos 2084 4.1 15:54:06 10° W 15:58:06 43° NNW 15:58:09 43° NNW
Cosmos 1867 4.4 15:53:35 10° NW 15:58:50 48° SW 16:03:16 14° SSE
Cosmos 1777 Rocket 3.9 15:53:37 10° SSW 15:58:54 87° WNW 16:00:11 53° NNE
Cosmos 1980 Rocket 4.0 15:54:26 10° SSE 15:55:56 17° SSE 15:55:56 17° SSE
Resurs 01 Rocket 3.2 16:05:25 24° N 16:05:25 24° N 16:07:10 10° N
CZ-2D R/B 4.4 16:00:05 10° S 16:04:08 47° W 16:08:11 10° NNW
Cosmos 1844 Rocket 3.6 15:59:03 10° NNW 16:03:16 34° NNE 16:03:16 34° NNE
YAOGAN 1 3.3 16:04:21 10° S 16:08:30 52° W 16:12:41 10° NNW
Cosmos 2263 Rocket 2.2 16:04:30 10° NW 16:10:11 79° WSW 16:12:02 44° SSE
SL-16 R/B 4.1 16:05:01 10° N 16:10:22 31° NW 16:15:41 10° WSW
CENTAUR R/B 3.1 16:04:56 10° W 16:11:11 57° NNW 16:13:45 39° NE
Cosmos 1486 Rocket 4.4 16:08:15 10° SW 16:13:24 59° WNW 16:14:56 42° N
Cosmos 1953 Rocket 4.0 16:10:18 10° NNW 16:14:40 60° W 16:16:13 37° SSW
Nadezhda 2 Rocket 4.3 16:09:44 10° N 16:15:56 77° ENE 16:17:09 58° SE
Cosmos 2360 4.4 16:11:50 10° SW 16:17:33 70° NW 16:18:51 52° N
USA 81 4.1 16:12:20 10° N 16:17:38 77° W 16:22:53 10° S
USA 215 3.2 16:17:05 54° SE 16:18:42 79° SSW 16:25:18 10° WNW
Cosmos 2227 Rocket 3.1 16:13:34 10° NW 16:18:56 46° WSW 16:24:17 10° S
USA 281 3.5 16:24:53 49° NNE 16:24:53 49° NNE 16:30:34 10° NNW
Cosmos 2369 Rocket 4.0 16:23:45 10° WNW 16:27:58 21° NNW 16:29:28 19° N
GEOS 3 Rocket 4.3 16:29:20 47° N 16:29:54 49° NNW 16:35:03 10° W
Cosmos 1943 Rocket 4.1 16:33:33 10° NNW 16:36:13 17° N 16:36:13 17° N
Cosmos 2278 Rocket 4.1 16:33:25 10° NNW 16:36:26 18° N 16:36:26 18° N
Cosmos 1697 Rocket 3.0 16:35:38 10° SW 16:40:12 60° SW 16:40:12 60° SW
Cosmos 2082 4.4 16:58:10 10° NW 17:02:38 50° WNW 17:02:38 50° WNW
NOSS 3-2 (C) 4.0 16:58:49 10° WSW 17:02:36 49° WSW 17:02:36 49° WSW
NOSS 3-2 (A) 4.1 17:00:56 10° W 17:05:37 49° NW 17:05:37 49° NW
Lacrosse 4 Rocket 4.4 17:13:49 10° NW 17:14:13 11° NW 17:14:13 11° NW
Cosmos 2263 Rocket 4.5 17:49:31 10° WNW 17:53:15 18° W 17:53:46 18° WSW
CENTAUR R/B 4.0 17:56:21 10° WNW 18:00:51 38° NW 18:00:51 38° NW
